M/T Havva Ana — V7RE3 — position and weather

sailwx.info

Track history (hours):
 
Tides and Currents Weather Stations Pressure Air Temp Water Temp Dewpoint Dewpoint Depression Visibility Wind Speed Wind Dir Waves Ship Positions

M/T Havva Ana

Last reported at 2014-Jul-30 20:33 UTC. Time now 2014-Jul-30 21:22 UTC.
Position N 40°53' E 001°30'.

Length 124 m; draft 6.6 m.

Type: Tanker. MMSI: 538003488.

Date/timePositionNaut miles runAvg speedWind from/ knotsBaromVisibWave heightAir tempDewpointWater temp
2014-Jul-30 20:33N 40°53' E 001°30'1211.8
2014-Jul-30 19:33N 40°49' E 001°45'1211.9
2014-Jul-30 18:33N 40°45' E 002°00'1211.6
2014-Jul-30 17:33N 40°41' E 002°14'1211.9
2014-Jul-30 16:33N 40°37' E 002°29'1211.9
2014-Jul-30 15:33N 40°33' E 002°44'1212.1
2014-Jul-30 14:34N 40°29' E 002°59'1110.5
2014-Jul-30 13:33N 40°25' E 003°12'1410.7
2014-Jul-30 12:17N 40°21' E 003°29'25410.7
2014-Jul-29 12:32N 38°46' E 008°34'1212.6
2014-Jul-29 11:33N 38°41' E 008°49'4312.7
2014-Jul-29 08:11N 38°25' E 009°40'9 5.1
2014-Jul-29 06:25N 38°21' E 009°50'6 7.3
2014-Jul-29 05:32N 38°19' E 009°58'1212.3
2014-Jul-29 04:33N 38°15' E 010°12'1312.3
2014-Jul-29 03:31N 38°10' E 010°27'14512.1
2014-Jul-28 15:29N 37°08' E 013°13'1011.0
2014-Jul-28 14:33N 37°04' E 013°25'1111.5
2014-Jul-28 13:33N 36°59' E 013°38'1211.6
2014-Jul-28 12:33N 36°54' E 013°51'1111.4
2014-Jul-28 11:33N 36°49' E 014°04'1111.3
2014-Jul-28 10:33N 36°44' E 014°17'1111.4
2014-Jul-28 09:33N 36°39' E 014°30'1111.3
2014-Jul-28 08:33N 36°36' E 014°43'1311.6
2014-Jul-28 07:28N 36°34' E 014°58'1111.8
2014-Jul-28 06:33N 36°32' E 015°12'44311.3
2014-Jul-26 15:12N 37°32' E 024°22'912.4
2014-Jul-26 14:30N 37°40' E 024°28'28411.9
2014-Jul-25 14:31N 40°56' E 028°53'358 7.3
2014-Jul-23 13:33N 46°35' E 031°35'1211.4
2014-Jul-23 12:29N 46°37' E 031°52'8 9.2
2014-Jul-23 11:33N 46°45' E 031°55'1 1.3
2014-Jul-23 10:32N 46°46' E 031°57'0 0.0
2014-Jul-23 09:32N 46°46' E 031°57'0 0.0
2014-Jul-23 08:29N 46°46' E 031°57'0 0.0
2014-Jul-23 07:32N 46°46' E 031°57'0 0.0
2014-Jul-23 06:32N 46°46' E 031°57'0 0.0
2014-Jul-23 05:32N 46°46' E 031°57'0 0.0
2014-Jul-23 04:29N 46°46' E 031°57'0 0.0
2014-Jul-23 03:32N 46°46' E 031°57'0 0.0
2014-Jul-23 02:32N 46°46' E 031°57'0 0.0
2014-Jul-23 01:32N 46°46' E 031°57'0 0.0
2014-Jul-23 00:26N 46°46' E 031°57'0 0.0
2014-Jul-22 23:26N 46°46' E 031°57'0 0.0
2014-Jul-22 22:32N 46°46' E 031°57'0 0.0
2014-Jul-22 21:32N 46°46' E 031°57'0 0.0
2014-Jul-22 20:32N 46°46' E 031°57'0 0.0
2014-Jul-22 19:32N 46°46' E 031°57'0 0.0
2014-Jul-22 18:32N 46°46' E 031°57'0 0.0
2014-Jul-22 17:32N 46°46' E 031°57'0 0.0
2014-Jul-22 16:32N 46°46' E 031°57'0 0.0
2014-Jul-22 15:32N 46°46' E 031°57'0 0.0
2014-Jul-22 14:32N 46°46' E 031°57'0 0.0
2014-Jul-22 13:32N 46°46' E 031°57'0 0.0
2014-Jul-22 12:32N 46°46' E 031°57'0 0.0
2014-Jul-22 11:32N 46°46' E 031°57'0 0.0
2014-Jul-22 10:32N 46°46' E 031°57'0 0.0
2014-Jul-22 09:32N 46°46' E 031°57'0 0.0
2014-Jul-22 08:32N 46°46' E 031°57'0 0.0
2014-Jul-22 07:32N 46°46' E 031°57'0 0.0
2014-Jul-22 06:32N 46°46' E 031°57'0 0.0
2014-Jul-22 05:32N 46°46' E 031°57'0 0.0
2014-Jul-22 04:32N 46°46' E 031°57'0 0.0
2014-Jul-22 03:33N 46°46' E 031°57'4 3.7
2014-Jul-22 02:33N 46°43' E 031°56'1010.3
2014-Jul-22 01:33N 46°36' E 031°45'1210.3
2014-Jul-22 00:22N 46°35' E 031°27'1012.6
2014-Jul-21 23:34N 46°35' E 031°12'1111.0
2014-Jul-21 22:33N 46°32' E 030°57'13 4.6
2014-Jul-21 19:48N 46°20' E 031°03'0 0.1
2014-Jul-21 19:33N 46°20' E 031°03'5 5.3
2014-Jul-21 18:33N 46°16' E 030°59'1312.9
2014-Jul-21 17:32N 46°06' E 031°12'7712.7
2014-Jul-21 11:29N 45°10' E 032°26'1112.4
2014-Jul-21 10:33N 45°01' E 032°37'1312.6
2014-Jul-21 09:33N 44°51' E 032°48'6412.1
2014-Jul-21 04:16N 44°17' E 034°04'912.6
2014-Jul-21 03:32N 44°17' E 034°17'1212.4
2014-Jul-21 02:33N 44°18' E 034°34'1312.6
2014-Jul-21 01:32N 44°18' E 034°52'1512.9
2014-Jul-21 00:23N 44°19' E 035°13'  
Track history (hours):
 
Tides and Currents Weather Stations Pressure Air Temp Water Temp Dewpoint Dewpoint Depression Visibility Wind Speed Wind Dir Waves Ship Positions

M/T Havva Ana

Last reported at 2014-Jul-30 20:33 UTC. Time now 2014-Jul-30 21:22 UTC.
Position N 40°53' E 001°30'.

Length 124 m; draft 6.6 m.

Type: Tanker. MMSI: 538003488.

Date/timePositionNaut miles runAvg speedWind from/ knotsBaromVisibWave heightAir tempDewpointWater temp
2014-Jul-30 20:33N 40°53' E 001°30'1211.8
2014-Jul-30 19:33N 40°49' E 001°45'1211.9
2014-Jul-30 18:33N 40°45' E 002°00'1211.6
2014-Jul-30 17:33N 40°41' E 002°14'1211.9
2014-Jul-30 16:33N 40°37' E 002°29'1211.9
2014-Jul-30 15:33N 40°33' E 002°44'1212.1
2014-Jul-30 14:34N 40°29' E 002°59'1110.5
2014-Jul-30 13:33N 40°25' E 003°12'1410.7
2014-Jul-30 12:17N 40°21' E 003°29'25410.7
2014-Jul-29 12:32N 38°46' E 008°34'1212.6
2014-Jul-29 11:33N 38°41' E 008°49'4312.7
2014-Jul-29 08:11N 38°25' E 009°40'9 5.1
2014-Jul-29 06:25N 38°21' E 009°50'6 7.3
2014-Jul-29 05:32N 38°19' E 009°58'1212.3
2014-Jul-29 04:33N 38°15' E 010°12'1312.3
2014-Jul-29 03:31N 38°10' E 010°27'14512.1
2014-Jul-28 15:29N 37°08' E 013°13'1011.0
2014-Jul-28 14:33N 37°04' E 013°25'1111.5
2014-Jul-28 13:33N 36°59' E 013°38'1211.6
2014-Jul-28 12:33N 36°54' E 013°51'1111.4
2014-Jul-28 11:33N 36°49' E 014°04'1111.3
2014-Jul-28 10:33N 36°44' E 014°17'1111.4
2014-Jul-28 09:33N 36°39' E 014°30'1111.3
2014-Jul-28 08:33N 36°36' E 014°43'1311.6
2014-Jul-28 07:28N 36°34' E 014°58'1111.8
2014-Jul-28 06:33N 36°32' E 015°12'44311.3
2014-Jul-26 15:12N 37°32' E 024°22'912.4
2014-Jul-26 14:30N 37°40' E 024°28'28411.9
2014-Jul-25 14:31N 40°56' E 028°53'358 7.3
2014-Jul-23 13:33N 46°35' E 031°35'1211.4
2014-Jul-23 12:29N 46°37' E 031°52'8 9.2
2014-Jul-23 11:33N 46°45' E 031°55'1 1.3
2014-Jul-23 10:32N 46°46' E 031°57'0 0.0
2014-Jul-23 09:32N 46°46' E 031°57'0 0.0
2014-Jul-23 08:29N 46°46' E 031°57'0 0.0
2014-Jul-23 07:32N 46°46' E 031°57'0 0.0
2014-Jul-23 06:32N 46°46' E 031°57'0 0.0
2014-Jul-23 05:32N 46°46' E 031°57'0 0.0
2014-Jul-23 04:29N 46°46' E 031°57'0 0.0
2014-Jul-23 03:32N 46°46' E 031°57'0 0.0
2014-Jul-23 02:32N 46°46' E 031°57'0 0.0
2014-Jul-23 01:32N 46°46' E 031°57'0 0.0
2014-Jul-23 00:26N 46°46' E 031°57'0 0.0
2014-Jul-22 23:26N 46°46' E 031°57'0 0.0
2014-Jul-22 22:32N 46°46' E 031°57'0 0.0
2014-Jul-22 21:32N 46°46' E 031°57'0 0.0
2014-Jul-22 20:32N 46°46' E 031°57'0 0.0
2014-Jul-22 19:32N 46°46' E 031°57'0 0.0
2014-Jul-22 18:32N 46°46' E 031°57'0 0.0
2014-Jul-22 17:32N 46°46' E 031°57'0 0.0
2014-Jul-22 16:32N 46°46' E 031°57'0 0.0
2014-Jul-22 15:32N 46°46' E 031°57'0 0.0
2014-Jul-22 14:32N 46°46' E 031°57'0 0.0
2014-Jul-22 13:32N 46°46' E 031°57'0 0.0
2014-Jul-22 12:32N 46°46' E 031°57'0 0.0
2014-Jul-22 11:32N 46°46' E 031°57'0 0.0
2014-Jul-22 10:32N 46°46' E 031°57'0 0.0
2014-Jul-22 09:32N 46°46' E 031°57'0 0.0
2014-Jul-22 08:32N 46°46' E 031°57'0 0.0
2014-Jul-22 07:32N 46°46' E 031°57'0 0.0
2014-Jul-22 06:32N 46°46' E 031°57'0 0.0
2014-Jul-22 05:32N 46°46' E 031°57'0 0.0
2014-Jul-22 04:32N 46°46' E 031°57'0 0.0
2014-Jul-22 03:33N 46°46' E 031°57'4 3.7
2014-Jul-22 02:33N 46°43' E 031°56'1010.3
2014-Jul-22 01:33N 46°36' E 031°45'1210.3
2014-Jul-22 00:22N 46°35' E 031°27'1012.6
2014-Jul-21 23:34N 46°35' E 031°12'1111.0
2014-Jul-21 22:33N 46°32' E 030°57'13 4.6
2014-Jul-21 19:48N 46°20' E 031°03'0 0.1
2014-Jul-21 19:33N 46°20' E 031°03'5 5.3
2014-Jul-21 18:33N 46°16' E 030°59'1312.9
2014-Jul-21 17:32N 46°06' E 031°12'7712.7
2014-Jul-21 11:29N 45°10' E 032°26'1112.4
2014-Jul-21 10:33N 45°01' E 032°37'1312.6
2014-Jul-21 09:33N 44°51' E 032°48'6412.1
2014-Jul-21 04:16N 44°17' E 034°04'912.6
2014-Jul-21 03:32N 44°17' E 034°17'1212.4
2014-Jul-21 02:33N 44°18' E 034°34'1312.6
2014-Jul-21 01:32N 44°18' E 034°52'1512.9
2014-Jul-21 00:23N 44°19' E 035°13'  

Dump ship's entire track history